Location: Anjeux
(47.8815°N, 6.2076°E)
Time: 14:57:50
(UTC+00:00)

Cosmos 2082 Rocket - Pass Details

Date: 05 March 2021
Orbit: 834 x 853 km, 71.0° (Epoch: 20 April)

Event Time Altitude Azimuth Distance (km) Brightness Sun altitude
Exits shadow 01:57:10 25° 39° (NE) 1,650 4.1 -39.8°
Drops below altitude 10° 01:59:30 10° 33° (NNE) 2,488 5.3 -39.5°
Sets 02:01:59 0° 30° (NNE) 3,426 6.2 -39.2°
